Regional Weather Roundup
Issued by NWS

Home | Current Version | Previous Version | Text Only | Print | Product List | Glossary Off
Versions: 1 2 3 4 5 6 7 8 9 10 11 12 13 14 15 16 17 18 19 20 21 22 23 24 25 26 27 28 29 30 31 32 33 34 35 36 37 38 39 40 41 42 43 44 45 46 47 48 49 50

000
ASUS43 KMPX 261710
RWRMN
WEATHER ROUNDUP FOR MINNESOTA
NATIONAL WEATHER SERVICE TWIN CITIES/CHANHASSEN MN
1200 PM CDT TUE JUL 26 2016


NOTE: "FAIR" INDICATES FEW OR NO CLOUDS BELOW 12,000 FEET WITH NO
SIGNIFICANT WEATHER AND/OR OBSTRUCTIONS TO VISIBILITY. N/A MEANS
CURRENT SKY AND/OR WEATHER CONDITIONS ARE NOT AVAILABLE.

MNZ060>063-068>070-261800-
   Twin Cities Metro

CITY           SKY/WX    TMP DP  RH WIND       PRES   REMARKS
TWIN CITIES    MOSUNNY   86  64  47 SW14      30.04F
ST PAUL        MOSUNNY   84  65  52 SW14      30.03F
CRYSTAL        SUNNY     85  63  47 SW14      30.01F
BLAINE         MOSUNNY   88  63  42 SW10      30.02F
LAKEVILLE      SUNNY     84  64  51 SW7       30.06F
EDEN PRAIRIE   MOSUNNY   86  67  52 SW14      30.04F
LAKEVILLE      SUNNY     84  64  51 SW7       30.06F
SOUTH ST PAUL  SUNNY     86  63  46 W9        30.04S
LAKE ELMO      FAIR      84  68  58 W12       30.05F
$$
MNZ001>005-007-008-013>017-022>024-027-028-261800-
   Northwest Minnesota

CITY           SKY/WX    TMP DP  RH WIND       PRES   REMARKS
BEMIDJI        CLOUDY    77  68  73 NW5       29.98R
HALLOCK        SUNNY     81  66  61 CALM      29.99S
ROSEAU         SUNNY     81  66  61 CALM      29.99F
WARROAD        SUNNY     75  70  83 E6        30.01R
THIEF RVR FALL CLOUDY    81  63  54 VRB5      29.99F
CROOKSTON      SUNNY     82  64  54 E8        29.97S
FOSSTON        CLOUDY    79  70  73 N6        29.98S
DETROIT LAKES  CLOUDY    72  64  78 CALM      30.02R
MOORHEAD       CLOUDY    73  66  78 CALM      29.99R
PARK RAPIDS    CLOUDY    78  63  59 SW8       30.00S
MAHNOMEN       FAIR      74  66  76 SW8       29.99R
$$
MNZ006-009>011-018-025>026-261800-
   North Central Minnesota

CITY           SKY/WX    TMP DP  RH WIND       PRES   REMARKS
BAUDETTE       CLOUDY    82  65  56 N7        29.98S
FLAG ISLAND    SUNNY     75  52  43 N9        29.99S
INTL FALLS     MOSUNNY   81  62  52 VRB3      29.97S
WASKISH        CLOUDY    81  66  61 CALM      29.98S
BIG FORK       CLOUDY    77  68  73 CALM      29.97S
LONGVILLE      CLOUDY    73  66  78 SW7       29.99R
GRAND RAPIDS   PTSUNNY   77  66  68 CALM      29.99R
CRANE LAKE     PTSUNNY   75  66  73 NE2       29.98S
ORR            CLOUDY    75  64  69 CALM      29.95S
COOK           MOSUNNY   77  70  78 N3        29.97S
WALKER         FAIR      74  65  74 SW5       29.99R
$$
MNZ012-019>021-037-261800-
   Northeast Minnesota

CITY           SKY/WX    TMP DP  RH WIND       PRES   REMARKS
DULUTH         CLOUDY    78  66  66 W9        29.96F
ELY            CLOUDY    77  66  69 NW3       29.97S
HIBBING        CLOUDY    77  67  71 VRB5      29.96F
EVELETH        CLOUDY    78  65  64 W7        29.98S
DULUTH HARBOR  CLOUDY    82  68  61 W9        29.94S
TWO HARBORS    CLOUDY    82  72  69 W6        29.92F
SILVER BAY     MOSUNNY   82  68  61 W3        29.92F
GRAND MARAIS     N/A     65  59  81 SW7       29.93F
G MARAIS ARPRT MOSUNNY   75  63  64 CALM      29.99F
$$
MNZ029>031-032-039>041-046>048-054>057-064-261800-
   West Central Minnesota

CITY           SKY/WX    TMP DP  RH WIND       PRES   REMARKS
FERGUS FALLS   CLOUDY    75  66  73 S5        30.00S
WHEATON        CLOUDY    84  72  65 SW8       30.00R
MORRIS         CLOUDY    86  70  58 SW8       30.00R HX  90
ALEXANDRIA     CLOUDY    82  68  62 SW12      30.03R
ELBOW LAKE     FAIR      81  71  70 SW12      30.01R
WADENA         CLOUDY    73  66  78 W5        30.01R
GLENWOOD       MOSUNNY   82  70  65 SW14      30.02F
APPLETON       SUNNY     84  66  54 SW12      30.00S
BENSON         SUNNY     84  66  54 W8        30.02R
ORTONVILLE     MOSUNNY   86  70  58 CALM      30.01S HX  90
MADISON        SUNNY     84  64  51 W9        30.02S
WILLMAR        FAIR      84  66  54 SW10      30.04S
$$
MNZ033>034-036-042>043-049>051-058-059-261800-
   Central Minnesota

CITY           SKY/WX    TMP DP  RH WIND       PRES   REMARKS
ST CLOUD       MOSUNNY   82  68  62 SW13G18   30.00F
SAUK CENTRE    FAIR      80  70  69 S8        30.02S
PAYNESVILLE    CLOUDY    80  66  63 SW8       30.04R
AITKIN         MOSUNNY   81  64  57 S7        29.97S
PINE RIVER     PTSUNNY   77  66  69 W3        30.02R
BRAINERD       MOSUNNY   77  67  71 S10       29.99F
STAPLES        CLOUDY    79  64  61 W7        30.00R
LONG PRAIRIE   FAIR      79  68  69 S8        30.02R
LITTLE FALLS   CLOUDY    79  63  57 SW5       30.01R
LITCHFIELD     SUNNY     84  66  54 SW6       30.03F
BUFFALO        SUNNY     83  65  54 S12       30.03F
MAPLE LAKE     SUNNY     84  69  61 SW5       30.04S
HUTCHINSON     SUNNY     83  70  66 S7        30.05F
$$
MNZ037-044-045-052-053-261800-
   East Central Minnesota

CITY           SKY/WX    TMP DP  RH WIND       PRES   REMARKS
PRINCETON      SUNNY     88  68  51 SW8       30.00F HX  91
MORA           MOSUNNY   81  66  61 SW10      30.01F
CAMBRIDGE      SUNNY     86  68  54 SW10G18   29.99F
RUSH CITY      MOSUNNY   83  68  59 SW5       30.01S
MOOSE LAKE     CLOUDY    77  66  69 SW7       29.97R
HINCKLEY       FAIR      81  70  69 SW9       29.99F
CLOQUET        CLOUDY    81  63  54 W8        29.97F
MCGREGOR       CLOUDY    77  64  65 SW9       30.00R
$$
MNZ071>073-080-081-089-090-097-098-261800-
   Southwest Minnesota

CITY           SKY/WX    TMP DP  RH WIND       PRES   REMARKS
MONTEVIDEO     SUNNY     84  66  54 W10       30.04S
GRANITE FALLS  SUNNY     84  66  53 S5        30.06S
CANBY          SUNNY     85  67  53 SW8       30.05R
MARSHALL       SUNNY     84  64  50 W10       30.05S
REDWOOD FALLS  SUNNY     84  63  49 S7        30.04F
OLIVIA         SUNNY     81  66  61 S7        30.04F
PIPESTONE      SUNNY     81  66  61 SW9       30.08S
WINDOM         SUNNY     84  64  51 SW12      30.07F
WORTHINGTON    SUNNY     82  68  62 SW13G18   30.09F
JACKSON        SUNNY     82  61  47 SW12      30.09F
TRACY          SUNNY     85  65  52 W5        30.07S
SLAYTON        SUNNY     82  64  54 SW10      30.08S
$$
MNZ065>067-074>077-082>085-091>093-261800-
   South Central Minnesota

CITY           SKY/WX    TMP DP  RH WIND       PRES   REMARKS
MANKATO        SUNNY     82  66  57 SW6       30.08S
NEW ULM        SUNNY     84  64  51 SW6       30.06F
ST JAMES       SUNNY     81  63  54 SW7       30.08S
FAIRMONT       SUNNY     82  63  51 S8        30.07F
GLENCOE        PTSUNNY   83  71  66 SW7       30.06F
FARIBAULT      SUNNY     84  66  54 SW7       30.08S
OWATONNA       SUNNY     82  66  57 W3        30.09S
WASECA         MOSUNNY   79  66  65 SW7       30.10S
ALBERT LEA     SUNNY     82  68  61 SW5       30.09F
$$
MNZ078>079-086>088-094>096-261800-
   Southeast Minnesota

CITY           SKY/WX    TMP DP  RH WIND       PRES   REMARKS
ROCHESTER      SUNNY     82  69  64 S6        30.11S
RED WING       MOSUNNY   84  66  54 SW6       30.05S
STANTON        PTSUNNY   84  66  54 W6        30.06S
DODGE CENTER   SUNNY     82  68  61 SW5       30.10S
WINONA         SUNNY     82  64  54 W5        30.07S
AUSTIN         SUNNY     81  68  65 CALM      30.10S
PRESTON        SUNNY     81  66  60 W3        30.11F
$$
ABBREVIATIONS USED IN REMARKS
   TC - TEMPERATURES IN CELSIUS
  WCI - WIND CHILL INDEX
   HX - HEAT INDEX
  VSB - VISIBILITY
$$




USA.gov is the U.S. government's official web portal to all federal, state and local government web resources and services.